User: anonymous   Login
Location: Unnamed
(47.6264°N, 122.3366°W)
Time: 13:39:49
(UTC-08:00)
Language:

M-CUBED/EXP-1 PRIME - Orbit

View from above orbital plane
View from above orbital plane
View from above satellite
View from above satellite

Ground track
Ground track

The orbit data is extracted from the following two-line orbital elements,

1 37855U 11061F   23333.14188500  .00053013  00000-0  12000-2 0  9995
2 37855 101.6973  29.5834 0094663 251.1624 107.9321 15.38287819662286
Epoch (UTC): 29 November 2023 03:24:18
Eccentricity: 0.0094663
inclination: 101.6973°
perigee height: 386 km
apogee height: 516 km
right ascension of ascending node: 29.5834°
argument of perigee: 251.1624°
revolutions per day: 15.38287819
mean anomaly at epoch: 107.9321°
orbit number at epoch: 66228

The dashed part of the orbit path shows where the satellite is in the earth's shadow,  

DLR